{"data":{"norad_id":55418,"intl_designator":"2023-014AD","name":"STARLINK-5030","alt_names":[],"object_type":"PAYLOAD","status":"ACTIVE","operator":null,"country":"US","launch_date":"2023-01-31","launch_site_code":"AFWTR","launch_vehicle":null,"mission":null,"orbit_class":"UNKNOWN","rcs_meters":null,"size_class":null,"mass_kg":null,"dimensions":null,"purposes":["comms"],"wikipedia_slug":null,"has_3d_model":false,"image_url":null,"decayed_at":null,"tle_current":{"epoch":"2026-09-20T22:00:03.000096Z","epoch_age_seconds":60637,"freshness":"FRESH","line1":"1 55418U 23014AD  26263.91670139  .00082654  00000+0  55330-2 0  9990","line2":"2 55418  70.0006 312.1348 0002191 215.8881 282.5883 15.06449449  5766","mean_motion":15.06449449,"eccentricity":0.0002191,"inclination_deg":70.0006,"raan_deg":312.1348,"arg_perigee_deg":215.8881,"mean_anomaly_deg":282.5883,"bstar":0.005533,"rev_number":576,"period_min":95.589002402695,"perigee_km":545.54269735641,"apogee_km":548.57731868533,"semimajor_km":6925.1970080209,"source":"CELESTRAK","updated_at":"2026-09-21T09:00:33.218689Z"}}}